KB1GNF Weather Reports


Display with metric or nautical units.
time (UTC)temp
F
wind
direction
speed
MPH
gust
MPH
rain 1hr
in
rain 24hr
in
rain mn
in
humidity
%
barometer
mb
20260831103506 57 200 0.0 0.0 0.00 0.00 0.00 97 1020.1
20260831103018 57 200 0.0 0.0 0.00 0.00 0.00 97 1020.1
20260831102510 57 200 0.0 0.0 0.00 0.00 0.00 97 1020.0
20260831102011 57 200 0.0 0.0 0.00 0.00 0.00 97 1019.9
20260831101531 57 200 0.0 0.0 0.00 0.00 0.00 97 1019.8
20260831101013 57 200 0.0 0.0 0.00 0.00 0.00 97 1019.9
20260831100514 57 200 0.0 1.0 0.00 0.00 0.00 97 1020.1
20260831100031 56 200 0.0 1.0 0.00 0.00 0.00 96 1020.1
20260831095516 56 200 0.0 1.0 0.00 0.00 0.00 96 1020.1
20260831095015 56 160 0.0 0.0 0.00 0.00 0.00 96 1020.0
20260831094508 57 152 0.0 0.0 0.00 0.00 0.00 96 1020.0
20260831094007 57 152 0.0 0.0 0.00 0.00 0.00 97 1020.0
20260831093507 57 152 0.0 0.0 0.00 0.00 0.00 96 1020.0
20260831093017 56 152 0.0 0.0 0.00 0.00 0.00 96 1019.9
20260831092508 56 80 0.0 0.0 0.00 0.00 0.00 96 1019.8
20260831092012 57 79 0.0 0.0 0.00 0.00 0.00 96 1019.7
20260831091525 57 79 0.0 0.0 0.00 0.00 0.00 96 1019.7
20260831091016 57 79 0.0 0.0 0.00 0.00 0.00 96 1019.6
20260831090513 57 79 0.0 0.0 0.00 0.00 0.00 96 1019.5
20260831090030 57 79 0.0 0.0 0.00 0.00 0.00 96 1019.6
20260831085513 57 79 0.0 1.0 0.00 0.00 0.00 96 1019.6
20260831085016 57 80 0.0 1.0 0.00 0.00 0.00 96 1019.6
20260831084530 57 82 0.0 0.0 0.00 0.00 0.00 96 1019.6
20260831084013 57 82 0.0 0.0 0.00 0.00 0.00 95 1019.6
20260831083517 57 82 0.0 0.0 0.00 0.00 0.00 96 1019.5
20260831083011 57 82 0.0 0.0 0.00 0.00 0.00 96 1019.5
20260831082507 58 82 0.0 0.0 0.00 0.00 0.00 96 1019.4
20260831082007 58 82 0.0 0.0 0.00 0.00 0.00 96 1019.4
20260831081516 58 82 0.0 0.0 0.00 0.00 0.00 96 1019.4
20260831081010 58 82 0.0 0.0 0.00 0.00 0.00 96 1019.4
20260831080509 58 82 0.0 0.0 0.00 0.00 0.00 96 1019.3
20260831080024 58 82 0.0 0.0 0.00 0.00 0.00 95 1019.3
20260831075512 58 82 0.0 0.0 0.00 0.00 0.00 95 1019.2
20260831075014 58 82 0.0 1.0 0.00 0.00 0.00 95 1019.0
20260831074531 58 82 0.0 1.0 0.00 0.00 0.00 95 1019.2
20260831074014 58 82 1.0 1.0 0.00 0.00 0.00 95 1019.2
20260831073521 58 300 0.0 1.0 0.00 0.00 0.00 95 1019.1
20260831073033 58 311 0.0 1.0 0.00 0.00 0.00 95 1019.1
20260831072515 58 266 0.0 1.0 0.00 0.00 0.00 95 1019.0
20260831072023 58 266 0.0 0.0 0.00 0.00 0.00 95 1019.0
20260831071533 58 266 0.0 0.0 0.00 0.00 0.00 95 1018.9
20260831071008 58 266 0.0 0.0 0.00 0.00 0.00 94 1018.9
20260831070508 58 266 0.0 0.0 0.00 0.00 0.00 95 1018.8
20260831070030 59 266 0.0 0.0 0.00 0.00 0.00 95 1018.8
20260831065513 59 266 0.0 0.0 0.00 0.00 0.00 95 1018.7
20260831065018 58 266 0.0 0.0 0.00 0.00 0.00 94 1018.7
20260831064528 58 266 0.0 0.0 0.00 0.00 0.00 94 1018.7
20260831064015 59 266 0.0 0.0 0.00 0.00 0.00 94 1018.6
20260831063513 59 266 0.0 0.0 0.00 0.00 0.00 94 1018.6
20260831063032 59 266 0.0 0.0 0.00 0.00 0.00 93 1018.6
20260831062514 59 266 0.0 0.0 0.00 0.00 0.00 93 1018.6
20260831062017 59 266 0.0 0.0 0.00 0.00 0.00 93 1018.8
20260831061540 59 266 0.0 1.0 0.00 0.00 0.00 93 1018.8
20260831061016 59 266 0.0 1.0 0.00 0.00 0.00 93 1018.8
20260831060517 59 266 0.0 1.0 0.00 0.00 0.00 93 1018.8
20260831060037 59 266 0.0 1.0 0.00 0.00 0.00 93 1018.7
20260831055508 59 266 0.0 0.0 0.00 0.00 0.00 92 1018.8
20260831055008 59 266 0.0 0.0 0.00 0.00 0.00 92 1018.7
20260831054528 60 266 0.0 0.0 0.00 0.00 0.00 92 1018.7
20260831054010 60 266 0.0 0.0 0.00 0.00 0.00 92 1018.7
20260831053504 60 266 0.0 0.0 0.00 0.00 0.00 92 1018.6
20260831053005 60 266 0.0 0.0 0.00 0.00 0.00 91 1018.6
20260831052504 60 266 0.0 1.0 0.00 0.00 0.00 91 1018.5
20260831052004 60 266 0.0 1.0 0.00 0.00 0.00 91 1018.6
20260831051521 61 265 0.0 1.0 0.00 0.00 0.00 91 1018.5
20260831051004 61 265 0.0 1.0 0.00 0.00 0.00 90 1018.5
20260831050504 61 262 0.0 1.0 0.00 0.00 0.00 90 1018.5
20260831050015 61 262 0.0 1.0 0.00 0.00 0.00 90 1018.4
20260831045506 61 6 0.0 0.0 0.00 0.00 0.00 89 1018.5
20260831045009 62 6 0.0 1.0 0.00 0.00 0.00 89 1018.6
20260831044525 62 6 0.0 1.0 0.00 0.00 0.00 89 1018.5
20260831044009 62 7 0.0 0.0 0.00 0.00 0.00 89 1018.5
20260831043511 62 6 0.0 0.0 0.00 0.00 0.00 89 1018.3
20260831043028 63 6 0.0 0.0 0.00 0.00 0.00 88 1018.3
20260831042514 63 6 0.0 0.0 0.00 0.00 0.00 88 1018.2
20260831042003 63 6 0.0 0.0 0.00 0.00 0.00 87 1018.2
20260831041509 63 7 0.0 0.0 0.00 0.00 0.00 87 1018.2
20260831041004 64 6 0.0 0.0 0.00 0.00 0.00 86 1018.2
20260831040504 64 6 0.0 0.0 0.00 0.00 0.00 85 1018.1
20260831040011 64 6 0.0 0.0 0.00 0.00 0.00 85 1018.1
20260831035505 65 6 0.0 1.0 0.00 0.00 0.00 85 1018.0
20260831035006 65 6 0.0 1.0 0.00 0.00 0.00 84 1018.1
20260831034516 65 6 1.0 1.0 0.00 0.00 0.00 83 1018.1
20260831034008 66 252 0.0 1.0 0.00 0.00 0.00 82 1018.2
20260831033508 66 251 0.0 1.0 0.00 0.00 0.00 81 1018.2
20260831033033 66 252 0.0 1.0 0.00 0.00 0.00 82 1018.0
20260831032512 66 252 0.0 0.0 0.00 0.00 0.00 82 1018.0
20260831032012 67 252 0.0 2.0 0.00 0.00 0.00 81 1018.1
20260831031539 67 252 0.0 2.0 0.00 0.00 0.00 81 1018.1
20260831031011 67 250 1.0 2.0 0.00 0.00 0.00 80 1018.2
20260831030509 68 40 0.0 1.0 0.00 0.00 0.00 79 1018.3
20260831030009 68 40 0.0 1.0 0.00 0.00 0.00 79 1018.2
20260831025503 68 221 0.0 1.0 0.00 0.00 0.00 78 1018.1
20260831025004 68 222 0.0 1.0 0.00 0.00 0.00 78 1018.1
20260831024521 69 203 0.0 2.0 0.00 0.00 0.00 78 1018.2
20260831024008 69 192 0.0 2.0 0.00 0.00 0.00 77 1018.1
20260831023505 70 241 1.0 3.0 0.00 0.00 0.00 76 1018.1
20260831023021 70 215 0.0 3.0 0.00 0.00 0.00 76 1018.1
20260831022509 70 203 1.0 2.0 0.00 0.00 0.00 75 1018.0
20260831022009 70 352 0.0 3.0 0.00 0.00 0.00 75 1018.1
20260831021523 70 352 1.0 3.0 0.00 0.00 0.00 75 1018.1
20260831021013 70 176 0.0 1.0 0.00 0.00 0.00 75 1018.1
20260831020512 70 307 0.0 3.0 0.00 0.00 0.00 74 1018.1
20260831020030 70 324 1.0 3.0 0.00 0.00 0.00 75 1018.1
20260831015518 70 75 0.0 3.0 0.00 0.00 0.00 75 1018.2
20260831015016 70 217 1.0 4.0 0.00 0.00 0.00 75 1018.0
20260831014510 70 253 0.0 4.0 0.00 0.00 0.00 75 1018.0
20260831014004 70 145 2.0 4.0 0.00 0.00 0.00 75 1018.0
20260831013504 70 259 1.0 3.0 0.00 0.00 0.00 75 1017.9
20260831013015 70 230 0.0 3.0 0.00 0.00 0.00 75 1018.0
20260831012508 70 281 1.0 4.0 0.00 0.00 0.00 75 1017.9
20260831012007 69 240 1.0 4.0 0.00 0.00 0.00 77 1018.0
20260831011527 69 229 0.0 2.0 0.00 0.00 0.00 79 1017.9
20260831011010 70 2 0.0 2.0 0.00 0.00 0.00 79 1018.0
20260831010511 70 239 0.0 1.0 0.00 0.00 0.00 77 1018.0
20260831010030 71 240 0.0 1.0 0.00 0.00 0.00 77 1018.0
20260831005513 71 239 0.0 1.0 0.00 0.00 0.00 74 1017.9
20260831005015 71 239 0.0 1.0 0.00 0.00 0.00 73 1017.9
20260831004530 71 241 0.0 1.0 0.00 0.00 0.00 73 1017.7
20260831004019 71 236 0.0 2.0 0.00 0.00 0.00 72 1017.6
20260831003517 71 326 0.0 3.0 0.00 0.00 0.00 72 1017.6
20260831003014 71 307 0.0 3.0 0.00 0.00 0.00 72 1017.5
20260831002504 71 357 0.0 2.0 0.00 0.00 0.00 73 1017.5
20260831002008 71 330 1.0 2.0 0.00 0.00 0.00 75 1017.4
20260831001520 72 302 0.0 1.0 0.00 0.00 0.00 75 1017.2
20260831001010 72 236 0.0 1.0 0.00 0.00 0.00 74 1017.1
20260831000510 72 253 0.0 4.0 0.00 0.00 0.00 76 1017.0
20260831000025 72 238 1.0 4.0 0.00 0.00 0.00 74 1016.8
20260830235513 71 239 1.0 3.0 0.00 0.00 0.00 76 1016.9
20260830235011 71 256 0.0 3.0 0.00 0.00 0.00 78 1016.8
20260830234527 70 247 0.0 3.0 0.00 0.00 0.00 79 1016.8
20260830234014 70 333 0.0 1.0 0.00 0.00 0.00 83 1016.8
20260830233515 70 278 0.0 0.0 0.00 0.00 0.00 85 1016.9
20260830233033 70 268 0.0 0.0 0.00 0.00 0.00 84 1016.7
20260830232519 70 268 0.0 0.0 0.00 0.00 0.00 84 1016.8
20260830232018 70 262 0.0 0.0 0.00 0.00 0.00 84 1016.9
20260830231517 70 262 0.0 0.0 0.00 0.00 0.00 84 1016.8
20260830231005 70 262 0.0 0.0 0.00 0.00 0.00 84 1016.8
20260830230507 70 246 0.0 0.0 0.00 0.00 0.00 83 1016.8
20260830230021 70 246 0.0 0.0 0.00 0.00 0.00 83 1016.6
20260830225510 71 245 0.0 0.0 0.00 0.00 0.00 83 1016.8
20260830225011 71 238 0.0 0.0 0.00 0.00 0.00 82 1016.8
20260830224534 72 235 0.0 0.0 0.00 0.00 0.00 81 1016.7
20260830224015 72 235 0.0 0.0 0.00 0.00 0.00 81 1016.7
20260830223513 73 235 0.0 0.0 0.00 0.00 0.00 79 1016.7
20260830223033 73 235 0.0 0.0 0.00 0.00 0.00 76 1016.7
20260830222515 73 235 0.0 1.0 0.00 0.00 0.00 75 1016.7
20260830222015 73 235 0.0 2.0 0.00 0.00 0.00 74 1016.6
20260830221536 73 240 0.0 2.0 0.00 0.00 0.00 74 1016.7
20260830221015 74 224 1.0 4.0 0.00 0.00 0.00 74 1016.7
20260830220517 74 231 2.0 4.0 0.00 0.00 0.00 73 1016.8
20260830220018 74 245 1.0 3.0 0.00 0.00 0.00 74 1016.7
20260830215510 74 243 1.0 3.0 0.00 0.00 0.00 73 1016.8
20260830215012 75 224 1.0 3.0 0.00 0.00 0.00 72 1016.8
20260830214527 75 245 1.0 4.0 0.00 0.00 0.00 72 1016.8
20260830214004 75 256 1.0 4.0 0.00 0.00 0.00 72 1016.8
20260830213503 75 247 0.0 3.0 0.00 0.00 0.00 72 1016.8
20260830213006 75 222 0.0 3.0 0.00 0.00 0.00 72 1016.8
20260830212504 75 229 1.0 5.0 0.00 0.00 0.00 71 1016.8
20260830212004 75 148 2.0 5.0 0.00 0.00 0.00 71 1016.8
20260830211508 75 221 2.0 5.0 0.00 0.00 0.00 70 1016.8
20260830211006 75 162 3.0 5.0 0.00 0.00 0.00 70 1016.9
20260830210506 76 244 2.0 7.0 0.00 0.00 0.00 70 1017.0
20260830210015 76 257 3.0 7.0 0.00 0.00 0.00 69 1017.0
20260830205508 76 212 3.0 6.0 0.00 0.00 0.00 69 1017.0
20260830205007 75 217 3.0 6.0 0.00 0.00 0.00 69 1017.0
20260830204519 75 223 2.0 5.0 0.00 0.00 0.00 70 1017.1
20260830204008 75 252 3.0 5.0 0.00 0.00 0.00 68 1017.2
20260830203512 76 248 3.0 5.0 0.00 0.00 0.00 68 1017.3
20260830203035 76 219 1.0 6.0 0.00 0.00 0.00 69 1017.2
20260830202503 76 232 3.0 6.0 0.00 0.00 0.00 68 1017.1
20260830202005 76 244 1.0 8.0 0.00 0.00 0.00 69 1017.2
20260830201506 75 206 4.0 8.0 0.00 0.00 0.00 69 1017.3
20260830201005 75 193 3.0 4.0 0.00 0.00 0.00 70 1017.3
20260830200506 75 218 0.0 2.0 0.00 0.00 0.00 71 1017.3
20260830200009 75 245 0.0 2.0 0.00 0.00 0.00 71 1017.4
20260830195506 75 195 1.0 3.0 0.00 0.00 0.00 71 1017.5
20260830195007 75 235 2.0 3.0 0.00 0.00 0.00 70 1017.5
20260830194518 75 214 1.0 4.0 0.00 0.00 0.00 70 1017.5
20260830194007 75 224 1.0 8.0 0.00 0.00 0.00 70 1017.6
20260830193510 75 162 3.0 8.0 0.00 0.00 0.00 68 1017.5
20260830193023 75 188 3.0 6.0 0.00 0.00 0.00 68 1017.6
20260830192511 76 167 4.0 6.0 0.00 0.00 0.00 68 1017.6
20260830192016 76 210 3.0 11.0 0.00 0.00 0.00 68 1017.7
20260830191530 76 236 6.0 11.0 0.00 0.00 0.00 67 1017.8
20260830191016 76 220 3.0 8.0 0.00 0.00 0.00 69 1017.8
20260830190502 76 198 4.0 8.0 0.00 0.00 0.00 67 1017.9
20260830190026 76 203 4.0 10.0 0.00 0.00 0.00 68 1018.0
20260830185503 76 232 6.0 10.0 0.00 0.00 0.00 67 1018.0
20260830185006 77 280 4.0 7.0 0.00 0.00 0.00 69 1018.0
20260830184515 77 213 2.0 5.0 0.00 0.00 0.00 68 1018.1
20260830184006 77 172 3.0 5.0 0.00 0.00 0.00 68 1018.2
20260830183506 77 205 2.0 5.0 0.00 0.00 0.00 69 1018.2
20260830183019 77 179 1.0 5.0 0.00 0.00 0.00 70 1018.3
20260830182509 77 168 2.0 7.0 0.00 0.00 0.00 70 1018.4
20260830182011 77 219 4.0 7.0 0.00 0.00 0.00 69 1018.3
20260830181526 77 186 3.0 5.0 0.00 0.00 0.00 69 1018.4
20260830181011 77 204 2.0 5.0 0.00 0.00 0.00 69 1018.4
20260830180514 77 154 3.0 7.0 0.00 0.00 0.00 68 1018.5
20260830180035 77 229 3.0 7.0 0.00 0.00 0.00 69 1018.4
20260830175516 77 159 3.0 8.0 0.00 0.00 0.00 68 1018.5
20260830175003 77 226 5.0 8.0 0.00 0.00 0.00 67 1018.6
20260830174514 77 208 2.0 5.0 0.00 0.00 0.00 68 1018.6
20260830174007 77 202 2.0 6.0 0.00 0.00 0.00 69 1018.8
20260830173507 76 164 4.0 7.0 0.00 0.00 0.00 69 1018.9
20260830173014 76 186 5.0 7.0 0.00 0.00 0.00 68 1019.0
20260830172508 76 193 2.0 7.0 0.00 0.00 0.00 69 1018.9
20260830172012 76 219 3.0 6.0 0.00 0.00 0.00 70 1018.9
20260830171523 76 214 4.0 6.0 0.00 0.00 0.00 69 1018.9
20260830171011 76 160 2.0 5.0 0.00 0.00 0.00 68 1018.9
20260830170514 76 251 1.0 5.0 0.00 0.00 0.00 70 1019.0
20260830170030 76 227 2.0 4.0 0.00 0.00 0.00 68 1019.1
20260830165515 76 210 2.0 5.0 0.00 0.00 0.00 67 1019.2
20260830165014 76 230 1.0 7.0 0.00 0.00 0.00 69 1019.2
20260830164539 76 155 3.0 7.0 0.00 0.00 0.00 68 1019.2
20260830164016 76 221 2.0 7.0 0.00 0.00 0.00 69 1019.3
20260830163504 76 236 3.0 7.0 0.00 0.00 0.00 69 1019.3
20260830163015 77 206 2.0 6.0 0.00 0.00 0.00 67 1019.2
20260830162509 77 175 2.0 5.0 0.00 0.00 0.00 65 1019.3
20260830162008 76 204 1.0 7.0 0.00 0.00 0.00 68 1019.4
20260830161521 76 191 3.0 7.0 0.00 0.00 0.00 68 1019.5
20260830161010 76 181 4.0 6.0 0.00 0.00 0.00 67 1019.5
20260830160510 76 193 3.0 5.0 0.00 0.00 0.00 66 1019.4
20260830160026 76 75 1.0 3.0 0.00 0.00 0.00 66 1019.4
20260830155511 76 170 1.0 4.0 0.00 0.00 0.00 66 1019.5
20260830155015 75 245 1.0 5.0 0.00 0.00 0.00 67 1019.7
20260830154533 75 131 4.0 6.0 0.00 0.00 0.00 65 1019.7
20260830154015 75 194 3.0 6.0 0.00 0.00 0.00 65 1019.9
20260830153515 75 238 2.0 6.0 0.00 0.00 0.00 66 1020.0
20260830153030 75 213 4.0 6.0 0.00 0.00 0.00 67 1020.0
20260830152520 74 257 3.0 7.0 0.00 0.00 0.00 67 1020.0
20260830152016 74 180 2.0 8.0 0.00 0.00 0.00 68 1020.1
20260830151533 75 182 5.0 8.0 0.00 0.00 0.00 68 1020.1
20260830151008 75 175 4.0 6.0 0.00 0.00 0.00 66 1020.2
20260830150510 75 244 2.0 8.0 0.00 0.00 0.00 67 1020.3
20260830150024 75 174 3.0 8.0 0.00 0.00 0.00 66 1020.3
20260830145511 75 166 4.0 7.0 0.00 0.00 0.00 65 1020.3
20260830145014 76 212 4.0 7.0 0.00 0.00 0.00 63 1020.4
20260830144529 76 250 1.0 8.0 0.00 0.00 0.00 65 1020.4
20260830144012 76 198 4.0 8.0 0.00 0.00 0.00 64 1020.3
20260830143512 76 169 3.0 9.0 0.00 0.00 0.00 68 1020.3
20260830143031 76 217 6.0 9.0 0.00 0.00 0.00 65 1020.3
20260830142514 75 157 3.0 8.0 0.00 0.00 0.00 66 1020.3
20260830142019 74 155 2.0 6.0 0.00 0.00 0.00 69 1020.4
20260830141531 74 196 2.0 5.0 0.00 0.00 0.00 69 1020.5
20260830141018 73 47 1.0 5.0 0.00 0.00 0.00 71 1020.6
20260830140520 72 162 1.0 5.0 0.00 0.00 0.00 71 1020.7
20260830140020 72 52 1.0 5.0 0.00 0.00 0.00 74 1020.6
20260830135515 70 205 1.0 6.0 0.00 0.00 0.00 74 1020.7
20260830135013 70 218 3.0 6.0 0.00 0.00 0.00 74 1020.8
20260830134529 70 174 3.0 6.0 0.00 0.00 0.00 73 1020.9
20260830134012 70 228 2.0 6.0 0.00 0.00 0.00 75 1021.0
20260830133512 69 172 2.0 6.0 0.00 0.00 0.00 75 1021.1
20260830133030 68 184 3.0 6.0 0.00 0.00 0.00 76 1021.0
20260830132518 68 155 1.0 5.0 0.00 0.00 0.00 77 1020.9
20260830132013 68 205 2.0 6.0 0.00 0.00 0.00 76 1021.0
20260830131530 67 207 1.0 6.0 0.00 0.00 0.00 78 1021.0
20260830131018 67 120 1.0 4.0 0.00 0.00 0.00 79 1021.1
20260830130515 66 207 2.0 4.0 0.00 0.00 0.00 80 1021.1
20260830130020 65 139 1.0 4.0 0.00 0.00 0.00 81 1021.0
20260830125507 65 177 1.0 4.0 0.00 0.00 0.00 83 1021.0
20260830125008 64 80 2.0 4.0 0.00 0.00 0.00 84 1020.9
20260830124519 63 75 3.0 6.0 0.00 0.00 0.00 84 1021.0
20260830124011 63 234 2.0 6.0 0.00 0.00 0.00 84 1021.2
20260830123513 62 167 4.0 6.0 0.00 0.00 0.00 84 1021.4
20260830123028 62 167 4.0 6.0 0.00 0.00 0.00 85 1021.3
20260830122504 62 224 3.0 6.0 0.00 0.00 0.00 85 1021.4
20260830122004 61 195 3.0 8.0 0.00 0.00 0.00 85 1021.4
20260830121508 61 192 4.0 8.0 0.00 0.00 0.00 84 1021.4
20260830121005 62 176 3.0 7.0 0.00 0.00 0.00 84 1021.4
20260830120504 62 192 3.0 6.0 0.00 0.00 0.00 85 1021.4
20260830120012 62 169 2.0 4.0 0.00 0.00 0.00 86 1021.5
20260830115509 61 222 2.0 4.0 0.00 0.00 0.00 87 1021.5
20260830115006 60 219 2.0 4.0 0.00 0.00 0.00 87 1021.5
20260830114519 60 191 0.0 0.0 0.00 0.00 0.00 89 1021.5
20260830114012 60 99 0.0 0.0 0.00 0.00 0.00 90 1021.5
20260830113514 59 99 0.0 0.0 0.00 0.00 0.00 90 1021.5
20260830113029 59 119 0.0 0.0 0.00 0.00 0.00 92 1021.6
20260830112513 59 221 0.0 0.0 0.00 0.00 0.00 94 1021.6
20260830112012 57 221 0.0 0.0 0.00 0.00 0.00 95 1021.6
20260830111531 57 221 0.0 0.0 0.00 0.00 0.00 95 1021.6
20260830111004 56 221 0.0 0.0 0.00 0.00 0.00 95 1021.7
20260830110504 56 221 0.0 0.0 0.00 0.00 0.00 95 1021.7
20260830110009 56 221 0.0 0.0 0.00 0.00 0.00 95 1021.6
20260830105505 55 221 0.0 0.0 0.00 0.00 0.00 95 1021.5
20260830105005 55 221 0.0 0.0 0.00 0.00 0.00 95 1021.3
20260830104517 55 221 0.0 0.0 0.00 0.00 0.00 95 1021.3
20260830104009 55 221 0.0 0.0 0.00 0.00 0.00 95 1021.5